Zurück zum Katalog

FENGYUN 1C DEB

AktivSSO
NORAD 35165·DEBRIS·🇨🇳 China

Gestartet May 10, 1999 von Taiyuan Satellite Launch Center

Loading…

Nächste Überflüge (nächste 24 Stunden)

TLE

AktuellSource: Space-Track

Epoche: Sep 13, 2026, 05:43 UTC

1 35165U 99025DMV 26256.23873390  .00002838  00000-0  98443-3 0  9993
2 35165  98.8770   0.8411 0018745 331.8992  28.1180 14.36311579936586

Verfolge FENGYUN 1C DEB in Echtzeit mit AllMySat

Download on the App Store